Retour au catalogue

NSS 10

AMC-12

ActifCommunicationsGEO
NORAD 28526·PAYLOAD·🇱🇺 Luxembourg

Lancé Feb 3, 2005 depuis Baikonur Cosmodrome

Loading…

TLE

FraisSource: CelesTrak SupGP

Époque: Sep 13, 2026, 23:44 UTC

1 28526C 05003A   26256.98958333 -.00000159  00000+0  00000+0 0  2560
2 28526   6.6673  69.3394 0002921 104.5489 137.8932  1.00272288    16

Suivez NSS 10 en temps réel avec AllMySat

Download on the App Store